Lapse_Rate
4.4 4.5 4.7 5.5 5.8 5.8 6.2 6.1 6.1 6.2 6.2 6.3 6.2 6.2 6.3 6.3 6.3 6.5 6.6 6.7 6.7 6.8 6.8 6.8 6.8 6.9 7.0 7.0 7.1 6.9 7.0 7.0 7.0 7.0 7.3 7.3 7.5 7.5 7.4 7.5 7.6 7.5 7.6 7.5 7.4 7.3 7.3
5.3 5.2 4.8 4.8 5.4 5.9 5.9 6.1 6.1 6.2 6.2 6.2 6.4 6.3 6.3 6.3 6.4 6.5 6.6 6.7 6.8 6.8 6.9 6.9 6.9 7.0 7.0 7.1 7.1 7.1 7.0 7.0 7.1 7.3 7.3 7.4 7.5 7.7 7.6 7.4 7.3 7.6 7.5 7.6 7.5 7.4 7.3
4.8 4.9 4.4 4.6 4.8 5.4 5.9 6.0 6.0 6.2 6.2 6.4 6.4 6.4 6.3 6.4 6.5 6.5 6.6 6.8 6.8 6.9 6.9 6.9 7.0 6.9 7.1 7.2 7.3 7.3 7.3 7.1 7.2 7.4 7.5 7.4 7.4 7.5 7.6 7.7 7.6 7.4 7.3 7.4 7.4 7.4 7.3
4.7 4.3 5.3 4.6 5.2 5.0 5.7 5.7 5.7 5.9 5.8 6.3 6.6 6.5 6.5 6.5 6.5 6.6 6.7 6.8 6.9 7.0 7.0 7.0 6.9 7.0 7.1 7.3 7.3 7.4 7.3 7.2 7.3 7.4 7.5 7.4 7.4 7.3 7.4 7.3 7.4 7.1 7.0 6.9 7.1 7.3 7.2
4.8 4.4 4.3 4.9 3.7 4.8 5.1 5.7 5.8 5.9 6.0 5.8 6.4 6.5 6.6 6.5 6.5 6.6 6.7 6.9 6.9 7.0 7.0 6.9 7.0 7.0 7.2 7.3 7.4 7.4 7.4 7.2 7.3 7.3 7.3 7.3 7.3 7.3 7.3 7.2 6.9 6.8 6.8 7.0 6.7 7.1 7.1
4.1 4.2 4.5 4.8 5.0 4.6 4.4 4.8 5.6 5.9 5.9 6.2 5.9 6.3 6.5 6.6 6.6 6.6 6.7 6.8 6.9 7.0 7.0 6.9 6.8 6.7 7.2 7.5 7.4 7.3 7.3 7.2 7.1 7.1 7.1 7.1 7.1 7.1 7.3 7.2 6.9 7.3 7.0 7.0 6.7 6.7 6.8
4.0 4.0 4.6 5.0 4.4 4.7 4.2 4.8 5.0 5.5 5.8 6.0 6.1 6.1 6.3 6.6 6.6 6.7 6.7 6.8 6.8 6.8 7.0 7.0 7.0 7.0 7.4 7.5 7.5 7.4 7.3 7.2 6.9 6.8 7.0 6.9 6.8 7.3 6.9 6.9 6.7 6.9 7.0 6.8 6.8 6.7 6.7
4.5 4.3 4.4 4.1 4.8 4.6 4.3 4.8 5.0 5.2 5.7 5.6 6.0 6.3 6.4 6.5 6.6 6.6 6.7 6.7 6.9 6.6 6.9 7.0 6.9 6.8 7.1 7.2 7.2 7.3 7.2 7.1 7.0 6.9 6.9 6.9 7.0 7.3 7.0 7.2 7.2 7.0 6.5 6.6 6.7 6.8 6.6
4.4 4.2 3.9 4.1 4.3 5.0 4.8 4.8 4.5 4.9 5.5 5.6 5.7 6.1 6.4 6.6 6.6 6.5 6.5 6.7 6.9 6.8 6.7 7.0 6.9 6.8 7.0 7.0 7.1 7.3 7.1 7.0 7.0 6.8 7.1 7.0 6.6 7.2 7.2 7.2 7.1 7.0 6.4 6.6 6.3 6.3 6.5
4.8 4.4 3.9 3.9 4.1 4.5 4.9 4.8 4.7 4.8 5.0 5.3 5.6 5.9 6.2 6.5 6.5 6.7 6.7 6.8 6.9 6.8 6.5 6.6 7.1 7.0 6.9 7.0 6.8 7.2 7.0 6.8 6.8 6.8 6.9 6.9 6.4 6.9 7.0 6.7 6.7 6.2 6.2 6.4 6.2 6.1 6.1
5.1 5.1 4.7 4.2 4.1 4.3 4.8 4.8 4.7 5.0 5.1 5.1 5.8 5.9 6.0 6.2 6.6 6.8 7.1 6.9 7.0 7.0 5.9 6.8 6.8 7.1 7.3 7.2 7.3 7.3 7.1 7.0 6.7 6.6 6.6 6.6 6.8 6.7 6.8 6.5 6.3 6.0 6.0 6.1 6.2 6.0 5.5
6.6 5.3 5.4 4.6 4.1 4.2 4.5 5.1 5.0 5.0 5.2 5.5 5.7 5.7 6.0 6.1 6.3 6.8 6.8 6.8 6.9 6.9 5.5 6.9 7.0 6.9 7.2 7.2 7.1 7.0 6.8 6.9 6.8 6.6 6.6 6.1 6.2 6.3 6.1 6.5 6.3 6.3 5.8 5.8 5.7 5.4 5.1
7.3 6.6 5.3 5.4 4.5 4.6 4.3 4.7 5.1 5.0 5.6 5.7 5.7 6.1 5.7 5.9 6.2 6.7 6.8 6.7 6.5 6.0 6.3 6.8 7.2 7.2 7.0 6.9 6.8 6.7 6.6 6.6 6.7 6.3 6.0 5.9 6.2 6.2 5.9 5.9 5.9 5.9 5.5 5.7 5.3 4.7 6.1
7.5 7.1 6.1 5.7 4.9 4.6 4.5 4.9 4.8 5.2 5.4 5.4 5.8 5.7 6.1 6.1 5.9 5.9 6.4 6.4 6.3 6.4 6.9 7.0 7.4 7.7 7.3 7.2 6.5 6.6 6.4 6.1 6.3 6.1 6.2 5.6 5.5 6.5 6.3 5.9 5.9 6.1 5.8 6.2 4.9 6.7 7.4
7.5 7.4 7.3 6.3 5.6 5.3 4.7 4.8 5.1 5.4 4.9 5.1 5.1 5.6 5.6 6.3 6.5 6.1 5.8 5.2 5.9 5.9 6.9 7.1 7.5 7.5 7.2 7.0 6.8 6.6 6.4 6.1 6.1 7.0 6.5 6.4 6.4 6.7 6.5 6.1 5.7 5.5 5.7 6.2 6.0 6.7 6.2
7.6 7.4 7.4 7.4 6.3 5.8 5.5 4.9 5.3 5.6 5.3 4.9 5.0 4.8 5.0 6.1 6.3 6.3 5.9 5.7 6.0 6.1 6.7 6.9 7.3 7.7 7.9 7.5 6.9 6.8 6.5 6.7 7.0 7.2 6.7 6.5 6.4 6.4 6.4 6.1 5.8 6.0 5.9 5.9 5.9 5.8 6.8
7.9 7.6 7.4 7.6 6.9 5.6 5.9 5.3 5.1 5.4 5.5 5.5 5.2 5.3 5.5 5.3 5.8 6.0 5.3 5.1 5.5 5.8 6.3 6.8 7.2 7.2 7.1 7.2 7.4 7.0 6.5 6.9 7.1 7.3 6.8 6.3 6.7 6.1 6.2 6.1 6.5 6.2 5.9 6.3 6.6 6.3 6.3
7.7 7.8 7.4 7.4 7.1 6.7 5.9 5.5 5.3 5.2 5.5 6.0 5.9 6.0 5.6 5.6 5.5 5.5 5.2 5.1 5.4 5.4 6.2 6.5 6.8 6.8 6.9 7.3 7.5 6.9 6.8 7.0 7.2 7.2 7.1 7.1 6.4 6.8 6.6 6.1 6.7 6.3 6.0 6.1 6.6 6.7 6.3
7.6 7.8 7.5 7.2 7.6 6.8 6.0 6.0 5.2 4.8 5.0 5.5 5.7 6.0 6.0 5.9 5.9 5.3 5.3 5.5 5.2 5.3 6.1 6.3 6.5 6.7 6.7 6.8 6.9 6.8 6.9 6.7 6.9 7.0 6.8 7.0 6.2 6.6 6.1 6.0 6.4 6.2 6.4 6.7 6.5 6.8 6.5
7.6 7.6 7.7 7.4 7.2 7.1 6.1 6.2 5.6 5.1 5.1 5.1 5.3 5.5 5.6 5.7 5.8 5.7 5.5 5.5 5.3 5.3 5.9 6.1 6.1 6.3 6.4 6.2 6.4 6.4 6.1 6.5 6.4 6.5 6.8 6.8 6.7 6.3 6.9 7.3 6.2 5.8 6.1 6.2 6.2 6.1 6.3
7.5 7.5 7.6 7.6 7.2 7.2 6.7 6.6 6.0 5.5 5.2 5.3 5.3 5.1 5.4 5.6 5.8 5.9 6.1 5.8 5.8 5.7 5.8 6.1 5.8 5.8 6.1 6.0 5.9 6.1 5.8 6.1 6.1 6.2 6.3 6.2 6.1 6.4 6.0 6.2 6.1 5.7 5.8 5.9 6.0 6.0 6.0
7.6 7.6 7.5 7.6 7.3 7.4 6.9 6.8 6.5 5.9 5.6 5.5 5.4 5.3 5.4 5.7 6.0 6.1 6.1 6.1 6.0 5.9 5.9 5.8 5.7 6.2 6.1 5.9 6.0 6.1 6.1 5.9 5.9 6.0 5.9 5.9 5.6 5.7 5.7 5.7 5.5 5.6 5.2 5.4 5.5 5.7 5.8
7.5 7.5 7.5 7.5 7.4 6.9 6.9 6.7 6.7 6.7 6.2 5.9 5.8 5.6 5.4 5.6 5.8 5.9 6.0 6.2 5.8 5.7 5.6 5.7 5.8 5.8 5.7 5.8 5.7 5.7 5.7 5.7 5.7 5.8 5.8 5.7 5.6 5.3 5.1 5.6 5.3 5.0 5.0 4.9 5.0 5.3 5.2
7.6 7.5 7.5 7.6 7.7 7.2 6.9 6.6 6.9 6.8 6.7 6.5 6.2 6.0 6.0 5.9 5.8 5.8 5.7 5.6 5.5 5.5 5.5 5.7 5.7 5.4 5.1 5.3 5.4 5.5 5.6 5.7 5.7 5.6 5.8 5.6 5.3 5.4 5.2 4.9 5.4 5.0 4.9 5.2 5.0 5.0 5.1
7.7 7.7 7.8 7.8 7.8 7.4 6.8 6.9 6.8 6.9 6.9 6.8 6.6 6.4 6.2 6.1 5.9 5.7 5.7 5.7 5.6 5.5 5.6 5.5 5.3 5.3 5.3 5.3 5.2 5.0 4.9 5.0 4.8 4.7 4.7 4.7 4.8 4.9 5.0 5.0 5.1 4.7 4.6 5.0 5.1 4.8 4.7
7.8 7.9 7.9 7.9 7.7 7.4 6.9 6.8 6.8 6.9 7.0 7.0 6.9 6.7 6.5 6.4 6.1 5.9 5.9 5.5 5.6 5.4 5.3 5.3 5.2 5.1 5.1 5.1 5.0 4.7 4.9 4.6 4.5 4.5 4.6 4.6 4.7 4.7 4.8 5.1 5.6 4.7 4.8 4.7 4.8 4.8 4.7
7.9 7.9 7.9 8.0 7.9 7.7 7.3 7.0 6.9 6.8 6.9 7.1 7.1 6.9 6.9 6.7 6.4 6.2 6.1 6.1 5.7 5.5 5.5 5.2 5.1 5.0 5.0 4.8 4.6 4.6 4.6 4.7 5.0 5.0 4.9 4.8 4.8 4.9 5.1 5.3 5.2 5.2 5.2 5.3 5.2 5.0 4.9
8.0 8.0 8.0 8.0 8.1 7.9 7.7 7.4 7.2 7.0 6.9 7.1 7.1 7.1 6.9 6.9 6.7 6.7 6.5 6.4 6.3 6.0 5.9 5.7 5.4 5.3 5.2 5.1 5.1 5.0 5.0 5.0 5.2 5.2 5.3 5.3 5.3 5.3 5.4 5.4 5.5 5.7 5.6 5.7 5.4 5.3 5.2
7.8 7.8 7.9 7.9 8.0 8.1 7.7 7.6 7.2 7.0 7.0 7.0 7.1 7.2 7.1 6.8 6.9 6.8 6.7 6.6 6.6 6.4 6.2 6.0 6.1 6.1 5.9 5.9 5.8 5.6 5.7 5.7 5.9 5.8 6.1 5.9 6.1 6.4 6.2 6.3 6.4 6.4 6.3 5.9 5.7 5.7 5.7
Wind_Speed
26 22 21 20 19 19 16 15 13 12 9 9 8 9 8 9 11 13 15 15 15 15 14 9 5 5 3 5 1 3 3 1 2 3 5 6 7 6 7 3 4 7 3 3 2 4 4
26 24 24 24 22 21 19 19 16 14 12 10 9 9 8 9 11 12 14 16 16 15 13 7 6 5 5 7 4 2 1 1 1 4 3 5 2 2 5 3 6 3 3 3 4 5 4
32 30 43 30 23 21 20 20 18 15 15 12 10 9 8 9 10 12 14 16 17 16 10 5 5 5 6 4 3 3 3 2 1 1 3 1 2 5 0 2 1 1 5 6 9 8 3
23 29 39 22 26 24 23 22 20 18 17 15 12 10 8 9 11 12 15 16 17 14 6 3 4 5 5 2 2 3 5 3 2 2 2 1 2 2 2 3 3 4 4 6 8 7 4
23 27 31 31 35 33 26 24 23 20 19 16 14 12 9 8 10 13 15 18 13 4 3 3 4 4 3 3 4 4 3 5 5 3 3 2 3 1 4 4 3 6 7 7 5 7 2
16 21 25 31 37 27 31 26 24 22 20 17 15 13 10 8 8 12 16 10 2 3 3 3 3 5 5 3 4 3 2 6 3 7 4 4 4 6 6 7 5 5 7 6 10 5 7
12 15 12 24 31 41 32 29 26 23 21 19 17 15 11 9 7 9 8 2 3 4 6 5 0 2 3 3 2 3 2 6 5 6 7 5 6 10 11 12 11 6 9 12 7 3 4
13 14 14 12 21 29 24 30 28 25 22 20 18 15 12 9 7 8 4 4 2 2 4 8 5 3 1 1 4 6 3 8 7 10 7 4 10 13 1 3 7 9 12 14 11 2 4
15 16 17 14 14 24 27 27 29 27 23 21 19 16 12 8 7 4 5 3 3 0 4 3 4 5 3 6 4 9 7 4 7 11 13 12 2 5 5 7 10 12 14 12 9 5 10
15 17 17 17 16 19 25 30 31 29 26 22 20 17 13 7 2 5 5 7 4 2 4 5 6 5 5 4 6 3 6 4 5 9 11 11 2 6 6 9 9 11 5 8 6 5 5
16 15 17 18 16 16 24 25 19 30 27 24 21 18 16 16 3 6 6 9 6 2 4 6 5 2 4 7 6 5 2 4 10 8 5 4 6 8 11 9 8 2 2 2 2 5 7
18 16 14 16 19 15 16 27 30 24 28 25 22 21 16 4 5 4 12 9 3 4 9 5 5 6 7 6 4 5 5 4 4 5 7 6 1 4 1 5 2 13 7 4 2 1 5
17 17 15 12 16 17 15 21 29 23 30 27 24 22 15 6 5 14 10 5 5 7 3 7 5 7 10 7 8 8 10 10 8 6 11 10 10 4 7 8 6 10 8 3 2 2 5
18 15 15 13 14 17 15 19 33 12 29 27 26 23 13 6 10 14 5 6 10 7 12 4 5 9 8 10 7 10 8 11 18 11 2 8 5 13 12 9 8 15 10 4 6 4 1
15 16 15 13 11 14 14 17 27 20 24 27 24 8 5 7 14 7 8 9 10 10 6 12 9 7 8 9 5 10 12 9 8 17 9 7 5 2 1 1 1 7 7 1 3 7 4
15 15 14 12 10 10 11 13 20 15 7 26 9 7 6 18 16 7 9 18 11 3 4 10 17 15 14 14 11 13 13 7 6 14 12 1 3 1 3 2 1 3 3 3 3 4 7
12 13 12 13 8 7 10 12 9 9 9 7 3 9 3 18 7 7 14 14 18 5 6 6 10 8 10 10 14 10 7 4 6 5 12 5 5 5 4 9 10 5 5 5 2 3 3
11 11 12 11 8 7 9 11 4 7 9 4 3 3 3 3 10 9 14 18 6 12 9 3 2 7 9 10 10 13 12 3 1 9 9 9 3 9 7 2 3 10 12 15 6 7 6
11 11 10 10 6 1 8 10 8 3 4 1 2 1 1 3 8 12 8 20 11 13 14 6 6 6 4 6 6 10 8 4 2 7 7 9 7 5 6 2 3 6 10 10 15 11 19
10 8 8 7 6 4 3 9 7 4 5 2 1 2 2 3 2 5 12 14 16 3 9 8 5 7 6 6 8 4 7 2 3 3 3 1 5 11 11 2 2 4 9 12 15 11 14
10 8 6 7 6 2 5 9 10 4 5 2 1 1 1 2 0 3 3 2 8 3 2 1 5 11 9 6 12 14 9 4 2 3 1 2 6 10 14 14 10 10 12 10 14 17 15
7 4 6 7 9 6 3 2 8 8 7 1 2 1 2 2 2 5 3 2 3 4 3 1 3 3 3 5 2 2 1 5 2 4 1 3 1 1 5 9 9 13 16 16 18 17 20
5 6 7 5 7 7 4 4 3 9 4 2 0 2 1 2 1 3 2 4 4 9 3 4 4 5 5 4 5 7 8 7 4 3 3 1 2 3 17 8 4 9 14 19 19 6 4
12 11 9 8 6 5 5 3 3 3 1 1 1 2 1 2 2 3 9 7 10 2 6 3 4 4 3 6 6 6 6 6 4 3 3 3 1 2 2 4 7 4 5 3 6 9 9
15 13 12 11 8 1 2 3 3 4 6 1 2 2 2 3 8 12 12 9 10 10 4 6 4 6 9 4 3 2 2 2 2 2 4 1 1 2 3 5 2 3 4 4 2 6 5
17 16 15 14 7 3 6 7 4 8 8 2 0 2 1 5 4 14 12 13 10 6 3 4 5 4 2 1 2 2 2 2 4 4 2 5 3 2 3 3 3 4 5 3 4 5 11
17 16 16 15 7 4 3 3 9 4 12 3 1 2 1 3 4 13 5 8 7 5 5 4 5 3 2 1 2 2 3 1 3 3 4 3 3 7 5 2 1 7 5 6 3 4 6
19 17 15 13 12 3 2 1 1 7 7 5 1 4 3 2 4 2 3 8 6 6 7 8 5 1 1 2 1 2 2 3 2 1 4 6 3 3 2 2 6 11 5 4 5 4 1
23 21 15 11 10 9 6 6 4 1 7 6 2 3 2 3 3 3 6 7 6 7 5 8 2 5 3 2 1 2 2 2 2 2 3 3 4 1 4 1 3 15 1 3 1 2 3
Wind_Direction
286 260 255 256 251 255 247 251 246 253 255 269 279 290 300 312 320 324 324 326 327 327 328 321 285 273 235 232 267 68 350 35 159 203 222 210 220 241 239 231 193 236 222 208 184 191 235
309 266 252 245 244 242 248 249 242 242 244 246 264 278 293 305 315 318 321 323 324 323 323 312 275 280 249 252 117 66 19 146 192 231 202 218 277 289 301 271 236 15 232 228 205 212 235
341 342 325 256 242 243 243 246 240 237 240 239 241 262 280 296 306 314 318 319 317 314 307 288 273 273 256 285 146 126 156 130 159 246 199 156 282 235 119 186 48 309 267 220 217 210 246
320 333 332 282 248 238 237 243 238 234 239 241 238 242 260 282 298 308 314 316 314 305 281 255 268 253 273 96 166 163 161 127 136 117 105 111 258 142 301 140 188 247 255 255 115 182 159
308 312 324 340 316 251 230 229 236 229 233 235 238 242 247 269 295 308 313 313 313 288 219 216 238 241 246 130 207 156 191 161 137 129 107 147 234 171 174 219 236 202 272 239 209 195 186
302 300 314 321 324 290 239 228 229 227 229 232 231 233 245 262 288 308 313 296 266 182 203 215 254 249 159 192 138 163 134 168 159 149 142 183 203 221 217 207 236 277 237 244 267 142 215
318 302 303 320 324 325 244 230 225 221 222 223 228 228 229 246 275 305 314 212 212 199 213 230 88 310 140 89 152 203 197 166 164 210 198 190 215 218 222 224 276 282 280 274 274 129 275
312 319 320 323 326 326 308 234 226 219 218 219 221 224 225 235 264 291 252 235 16 27 272 216 233 238 241 212 174 181 213 201 195 208 170 183 235 240 225 254 225 244 262 266 272 204 255
302 314 321 333 333 329 327 262 227 219 211 213 214 219 221 227 277 251 226 172 117 359 252 184 198 214 186 201 229 179 191 236 219 221 205 230 78 92 190 208 220 233 246 263 259 308 241
306 303 308 328 331 339 331 324 240 220 210 202 208 207 209 212 239 184 204 153 150 159 247 234 199 173 165 190 229 141 193 253 220 236 222 250 159 187 193 221 217 257 274 257 266 275 280
302 293 306 314 323 340 332 317 324 225 211 196 198 195 197 208 68 199 127 149 152 189 261 148 153 66 150 198 121 169 172 198 229 188 183 196 179 196 223 240 205 218 80 192 240 258 313
307 292 297 307 317 332 335 323 322 257 207 194 192 193 181 203 237 117 145 140 181 188 236 161 137 165 162 193 171 127 181 233 325 203 232 274 43 212 141 104 171 136 131 111 86 227 252
299 303 289 290 307 321 339 321 319 282 208 191 188 188 168 188 204 160 151 163 178 224 123 172 178 174 200 175 179 187 180 191 187 175 214 204 216 150 164 131 150 191 174 189 222 194 240
294 294 295 286 300 321 340 336 331 260 205 188 187 173 187 209 159 149 165 195 219 224 203 121 140 154 182 163 205 195 190 217 227 248 201 187 234 188 184 224 183 195 201 200 206 206 167
286 294 293 287 288 316 342 341 332 359 193 192 173 182 172 190 172 181 180 207 214 209 161 164 151 178 190 187 202 186 211 222 220 205 216 210 181 84 271 285 231 164 209 322 277 271 269
292 300 302 293 270 309 332 347 335 8 337 182 185 177 187 166 175 182 197 216 217 90 144 180 205 199 190 182 178 193 184 207 221 205 229 255 189 254 109 216 231 276 118 155 202 220 243
282 295 303 302 274 294 319 332 341 11 25 16 193 185 142 159 164 194 205 215 214 171 185 197 234 190 225 174 197 189 184 134 202 183 216 251 242 127 164 207 190 178 206 226 296 215 249
281 289 305 311 277 295 324 327 313 32 3 34 5 117 12 269 174 200 213 208 195 178 188 187 288 241 206 185 192 201 200 179 214 158 173 201 276 226 199 98 303 254 233 217 230 217 219
285 298 309 318 257 263 311 324 301 151 38 30 69 341 42 311 182 188 188 213 207 199 194 193 209 220 221 218 204 206 199 53 31 182 181 163 206 220 180 213 200 230 218 250 238 273 256
297 304 307 309 240 255 316 325 278 234 142 77 94 152 1 12 353 179 183 192 197 286 249 229 232 186 186 230 244 212 188 53 26 60 11 149 244 212 234 270 51 200 225 222 233 240 258
293 296 302 309 215 186 47 347 327 239 134 72 31 54 41 131 197 86 82 68 181 161 39 319 231 226 212 228 230 234 221 142 88 5 83 284 249 252 259 268 275 252 253 229 232 241 251
303 328 344 318 204 191 120 18 333 315 134 99 132 146 72 43 66 108 80 104 127 112 45 146 252 70 181 180 200 165 17 232 237 86 79 355 232 7 255 243 237 254 251 249 249 248 258
27 6 350 340 238 216 225 125 322 330 87 96 2 36 83 104 130 105 99 126 124 137 71 79 82 96 78 87 76 64 67 59 88 125 125 118 162 167 262 267 302 270 242 245 250 284 7
13 3 356 347 323 248 189 202 208 284 233 7 146 141 142 87 109 104 140 129 135 121 122 107 81 88 115 136 117 80 70 71 75 72 36 137 146 136 296 120 221 59 18 247 99 104 105
14 12 4 354 346 57 154 183 169 239 279 295 142 197 150 125 124 128 128 117 109 100 83 96 79 108 152 115 101 108 94 150 129 170 184 261 77 204 238 218 83 175 174 136 151 159 135
12 10 6 1 343 139 105 49 290 225 193 92 101 321 99 131 182 150 136 140 129 113 94 84 85 131 196 120 131 145 148 109 139 133 35 181 263 260 181 242 243 91 131 126 124 199 195
4 4 7 6 3 153 150 82 24 208 162 136 342 344 54 110 126 155 155 166 141 120 104 137 148 157 290 179 136 143 150 107 191 197 165 173 193 231 236 259 224 154 149 153 203 120 171
6 355 352 360 1 326 289 241 352 18 208 142 135 20 10 85 112 90 118 159 145 158 158 140 136 138 140 174 180 159 190 171 194 113 184 196 205 200 211 253 256 161 125 212 93 118 171
6 3 348 339 345 345 305 227 190 212 121 65 76 68 2 68 88 48 78 45 27 30 117 172 48 132 151 161 200 116 155 157 210 215 183 230 234 261 217 35 115 168 40 171 7 266 293